| time (UTC) | temp F | wind direction | speed MPH | gust MPH | rain 1hr in | rain 24hr in | rain mn in | humidity % | barometer mb |
| 20260905202135 | 87 | 325 | 4.0 | 8.0 | 0.00 | 0.02 | 0.33 | 55 | 1012.2 |
| 20260905201634 | 87 | 281 | 4.0 | 6.0 | 0.00 | 0.02 | 0.33 | 54 | 1012.3 |
| 20260905201134 | 87 | 305 | 3.0 | 7.0 | 0.00 | 0.02 | 0.33 | 54 | 1012.4 |
| 20260905200132 | 87 | 356 | 3.0 | 8.0 | 0.00 | 0.02 | 0.33 | 54 | 1012.6 |
| 20260905195631 | 87 | 314 | 2.0 | 6.0 | 0.00 | 0.02 | 0.33 | 55 | 1012.6 |
| 20260905195131 | 87 | 304 | 2.0 | 8.0 | 0.00 | 0.02 | 0.33 | 54 | 1012.7 |
| 20260905194627 | 86 | 274 | 6.0 | 8.0 | 0.00 | 0.02 | 0.33 | 54 | 1012.8 |
| 20260905194127 | 86 | 323 | 6.0 | 6.0 | 0.00 | 0.02 | 0.33 | 56 | 1012.9 |
| 20260905193626 | 87 | 359 | 2.0 | 4.0 | 0.00 | 0.02 | 0.33 | 55 | 1012.9 |
| 20260905193126 | 87 | 32 | 1.0 | 6.0 | 0.00 | 0.02 | 0.33 | 53 | 1012.9 |
| 20260905192625 | 87 | 330 | 4.0 | 7.0 | 0.00 | 0.02 | 0.33 | 55 | 1013.0 |
| 20260905192125 | 86 | 357 | 3.0 | 5.0 | 0.00 | 0.02 | 0.33 | 55 | 1013.0 |
| 20260905191624 | 86 | 31 | 2.0 | 5.0 | 0.00 | 0.02 | 0.33 | 55 | 1013.1 |
| 20260905191124 | 86 | 15 | 1.0 | 7.0 | 0.00 | 0.02 | 0.33 | 56 | 1013.2 |
| 20260905190623 | 85 | 356 | 5.0 | 4.0 | 0.00 | 0.02 | 0.33 | 56 | 1013.3 |
| 20260905190123 | 85 | 82 | 0.0 | 5.0 | 0.00 | 0.02 | 0.33 | 56 | 1013.4 |
| 20260905185622 | 85 | 269 | 4.0 | 2.0 | 0.00 | 0.02 | 0.33 | 56 | 1013.6 |
| 20260905185122 | 85 | 66 | 1.0 | 6.0 | 0.00 | 0.02 | 0.33 | 56 | 1013.6 |
| 20260905184621 | 84 | 271 | 2.0 | 9.0 | 0.00 | 0.02 | 0.33 | 57 | 1013.6 |
| 20260905184121 | 85 | 328 | 4.0 | 6.0 | 0.00 | 0.02 | 0.33 | 57 | 1013.6 |
| 20260905183620 | 84 | 340 | 4.0 | 9.0 | 0.00 | 0.02 | 0.33 | 57 | 1013.6 |
| 20260905183119 | 84 | 329 | 6.0 | 7.0 | 0.00 | 0.02 | 0.33 | 57 | 1013.8 |
| 20260905182619 | 84 | 330 | 2.0 | 10.0 | 0.00 | 0.02 | 0.33 | 57 | 1013.8 |
| 20260905182118 | 83 | 316 | 6.0 | 9.0 | 0.00 | 0.02 | 0.33 | 57 | 1013.8 |
| 20260905181618 | 83 | 301 | 6.0 | 7.0 | 0.00 | 0.02 | 0.33 | 58 | 1013.8 |
| 20260905181117 | 83 | 305 | 4.0 | 8.0 | 0.00 | 0.02 | 0.33 | 58 | 1014.0 |
| 20260905180617 | 83 | 325 | 4.0 | 9.0 | 0.00 | 0.02 | 0.33 | 60 | 1014.0 |
| 20260905180116 | 83 | 314 | 4.0 | 8.0 | 0.00 | 0.02 | 0.33 | 59 | 1014.1 |
| 20260905175616 | 83 | 359 | 4.0 | 9.0 | 0.00 | 0.02 | 0.33 | 59 | 1014.0 |
| 20260905175115 | 83 | 356 | 6.0 | 5.0 | 0.00 | 0.02 | 0.33 | 58 | 1013.8 |
| 20260905174615 | 83 | 20 | 2.0 | 8.0 | 0.00 | 0.02 | 0.33 | 57 | 1013.8 |
| 20260905174114 | 83 | 312 | 5.0 | 10.0 | 0.00 | 0.02 | 0.33 | 58 | 1014.0 |
| 20260905173614 | 84 | 349 | 6.0 | 8.0 | 0.00 | 0.02 | 0.33 | 57 | 1014.1 |
| 20260905173113 | 84 | 274 | 5.0 | 6.0 | 0.00 | 0.02 | 0.33 | 55 | 1013.7 |
| 20260905172613 | 84 | 153 | 3.0 | 6.0 | 0.00 | 0.02 | 0.33 | 55 | 1013.5 |
| 20260905172112 | 84 | 239 | 5.0 | 6.0 | 0.00 | 0.02 | 0.33 | 55 | 1013.5 |
| 20260905171612 | 84 | 217 | 0.0 | 9.0 | 0.00 | 0.02 | 0.33 | 57 | 1013.3 |
| 20260905171111 | 83 | 250 | 6.0 | 10.0 | 0.00 | 0.02 | 0.33 | 57 | 1013.5 |
| 20260905170611 | 83 | 224 | 7.0 | 10.0 | 0.00 | 0.02 | 0.33 | 56 | 1013.5 |
| 20260905170110 | 83 | 257 | 5.0 | 9.0 | 0.00 | 0.02 | 0.33 | 56 | 1013.7 |
| 20260905165610 | 83 | 243 | 8.0 | 8.0 | 0.00 | 0.02 | 0.33 | 55 | 1013.8 |
| 20260905165109 | 83 | 229 | 6.0 | 8.0 | 0.00 | 0.02 | 0.33 | 55 | 1014.0 |
| 20260905164608 | 83 | 248 | 4.0 | 10.0 | 0.00 | 0.02 | 0.33 | 56 | 1014.1 |
| 20260905164108 | 83 | 277 | 8.0 | 10.0 | 0.00 | 0.02 | 0.33 | 57 | 1014.1 |
| 20260905163607 | 82 | 229 | 5.0 | 11.0 | 0.00 | 0.02 | 0.33 | 57 | 1014.0 |
| 20260905163107 | 82 | 229 | 8.0 | 10.0 | 0.00 | 0.02 | 0.33 | 57 | 1014.1 |
| 20260905162606 | 82 | 214 | 8.0 | 10.0 | 0.00 | 0.02 | 0.33 | 55 | 1014.1 |
| 20260905161604 | 82 | 277 | 4.0 | 7.0 | 0.00 | 0.02 | 0.33 | 57 | 1014.2 |
| 20260905161104 | 82 | 248 | 2.0 | 7.0 | 0.00 | 0.02 | 0.33 | 57 | 1014.2 |
| 20260905160603 | 81 | 174 | 5.0 | 7.0 | 0.00 | 0.02 | 0.33 | 57 | 1014.2 |
| 20260905155601 | 80 | 84 | 1.0 | 6.0 | 0.00 | 0.02 | 0.33 | 60 | 1014.2 |
| 20260905155101 | 80 | 235 | 2.0 | 7.0 | 0.00 | 0.02 | 0.33 | 60 | 1014.2 |
| 20260905154600 | 80 | 262 | 4.0 | 7.0 | 0.00 | 0.02 | 0.33 | 60 | 1014.3 |
| 20260905154100 | 80 | 236 | 3.0 | 8.0 | 0.00 | 0.02 | 0.33 | 60 | 1014.3 |
| 20260905153559 | 79 | 215 | 0.0 | 9.0 | 0.00 | 0.02 | 0.33 | 60 | 1014.3 |
| 20260905153059 | 79 | 242 | 5.0 | 9.0 | 0.00 | 0.02 | 0.33 | 61 | 1014.2 |
| 20260905152057 | 78 | 221 | 5.0 | 12.0 | 0.00 | 0.02 | 0.33 | 62 | 1014.1 |
| 20260905151556 | 78 | 280 | 5.0 | 8.0 | 0.00 | 0.02 | 0.33 | 64 | 1014.1 |
| 20260905150554 | 77 | 259 | 6.0 | 11.0 | 0.00 | 0.02 | 0.33 | 62 | 1014.0 |
| 20260905150053 | 77 | 214 | 7.0 | 14.0 | 0.00 | 0.02 | 0.33 | 64 | 1013.8 |
| 20260905145053 | 77 | 210 | 7.0 | 14.0 | 0.00 | 0.02 | 0.33 | 66 | 1013.8 |
| 20260905144051 | 76 | 204 | 6.0 | 10.0 | 0.00 | 0.02 | 0.33 | 68 | 1013.7 |
| 20260905143551 | 76 | 215 | 6.0 | 12.0 | 0.00 | 0.02 | 0.33 | 70 | 1013.7 |
| 20260905143050 | 76 | 207 | 5.0 | 9.0 | 0.00 | 0.02 | 0.33 | 70 | 1013.7 |
| 20260905142049 | 75 | 172 | 6.0 | 15.0 | 0.00 | 0.02 | 0.33 | 72 | 1013.8 |
| 20260905141549 | 74 | 243 | 6.0 | 12.0 | 0.00 | 0.02 | 0.33 | 73 | 1014.0 |
| 20260905141048 | 74 | 221 | 7.0 | 12.0 | 0.00 | 0.02 | 0.33 | 73 | 1014.1 |
| 20260905140548 | 74 | 211 | 6.0 | 11.0 | 0.00 | 0.02 | 0.33 | 75 | 1014.4 |
| 20260905140047 | 73 | 203 | 7.0 | 11.0 | 0.00 | 0.02 | 0.33 | 77 | 1014.3 |
| 20260905135046 | 73 | 193 | 7.0 | 7.0 | 0.00 | 0.02 | 0.33 | 77 | 1014.6 |
| 20260905134546 | 73 | 201 | 5.0 | 7.0 | 0.00 | 0.02 | 0.33 | 80 | 1014.5 |
| 20260905134045 | 72 | 191 | 4.0 | 3.0 | 0.00 | 0.02 | 0.33 | 83 | 1014.5 |
| 20260905133044 | 71 | 198 | 2.0 | 3.0 | 0.00 | 0.02 | 0.33 | 87 | 1014.4 |
| 20260905132543 | 70 | 174 | 0.0 | 0.0 | 0.00 | 0.02 | 0.33 | 88 | 1014.7 |
| 20260905132043 | 70 | 174 | 0.0 | 0.0 | 0.00 | 0.02 | 0.33 | 89 | 1015.0 |
| 20260905131543 | 70 | 174 | 0.0 | 0.0 | 0.00 | 0.02 | 0.33 | 90 | 1015.1 |
| 20260905131042 | 70 | 174 | 0.0 | 0.0 | 0.00 | 0.02 | 0.33 | 90 | 1015.1 |
| 20260905130541 | 70 | 174 | 0.0 | 0.0 | 0.00 | 0.02 | 0.33 | 90 | 1015.4 |
| 20260905125540 | 70 | 174 | 0.0 | 2.0 | 0.00 | 0.02 | 0.33 | 90 | 1015.2 |
| 20260905125040 | 70 | 174 | 0.0 | 3.0 | 0.00 | 0.02 | 0.33 | 90 | 1015.2 |
| 20260905124539 | 70 | 174 | 1.0 | 0.0 | 0.00 | 0.02 | 0.33 | 90 | 1015.3 |
| 20260905124039 | 70 | 11 | 0.0 | 0.0 | 0.00 | 0.02 | 0.33 | 90 | 1015.5 |
| 20260905123538 | 69 | 11 | 0.0 | 0.0 | 0.00 | 0.02 | 0.33 | 90 | 1015.4 |
| 20260905123038 | 69 | 11 | 0.0 | 0.0 | 0.00 | 0.02 | 0.33 | 90 | 1015.5 |
| 20260905122537 | 69 | 11 | 0.0 | 0.0 | 0.00 | 0.02 | 0.33 | 90 | 1015.4 |
| 20260905122037 | 69 | 11 | 0.0 | 0.0 | 0.00 | 0.02 | 0.33 | 89 | 1015.4 |
| 20260905121535 | 70 | 11 | 0.0 | 0.0 | 0.00 | 0.02 | 0.33 | 89 | 1015.4 |
| 20260905121035 | 69 | 11 | 0.0 | 0.0 | 0.00 | 0.02 | 0.33 | 89 | 1015.6 |
| 20260905120534 | 69 | 11 | 0.0 | 0.0 | 0.00 | 0.02 | 0.33 | 88 | 1015.7 |
| 20260905115533 | 69 | 11 | 0.0 | 0.0 | 0.00 | 0.02 | 0.33 | 88 | 1015.4 |
| 20260905115033 | 69 | 11 | 0.0 | 0.0 | 0.32 | 0.02 | 0.33 | 88 | 1015.3 |
| 20260905114532 | 69 | 11 | 0.0 | 4.0 | 0.32 | 0.02 | 0.33 | 89 | 1015.2 |
| 20260905114031 | 69 | 68 | 1.0 | 6.0 | 0.32 | 0.02 | 0.33 | 89 | 1015.5 |
| 20260905113531 | 69 | 354 | 0.0 | 7.0 | 0.32 | 0.02 | 0.33 | 89 | 1015.3 |
| 20260905113030 | 69 | 17 | 2.0 | 5.0 | 0.32 | 0.02 | 0.33 | 89 | 1015.5 |
| 20260905112028 | 69 | 32 | 2.0 | 6.0 | 0.32 | 0.02 | 0.33 | 90 | 1015.7 |
| 20260905111528 | 69 | 352 | 3.0 | 9.0 | 0.32 | 0.02 | 0.33 | 90 | 1015.6 |
| 20260905111027 | 68 | 359 | 5.0 | 10.0 | 0.32 | 0.02 | 0.33 | 90 | 1015.5 |
| 20260905110527 | 68 | 359 | 2.0 | 9.0 | 0.32 | 0.02 | 0.33 | 90 | 1015.5 |
| 20260905105526 | 68 | 4 | 2.0 | 10.0 | 0.32 | 0.02 | 0.33 | 91 | 1015.4 |
| 20260905105025 | 68 | 39 | 5.0 | 13.0 | 0.01 | 0.02 | 0.33 | 91 | 1015.3 |
| 20260905104525 | 68 | 8 | 6.0 | 13.0 | 0.01 | 0.02 | 0.33 | 91 | 1015.3 |
| 20260905104024 | 68 | 30 | 6.0 | 10.0 | 0.01 | 0.02 | 0.32 | 91 | 1015.7 |
| 20260905103524 | 68 | 27 | 6.0 | 14.0 | 0.01 | 0.02 | 0.32 | 91 | 1015.9 |
| 20260905103023 | 68 | 31 | 6.0 | 12.0 | 0.01 | 0.02 | 0.32 | 91 | 1016.0 |
| 20260905102523 | 68 | 4 | 4.0 | 13.0 | 0.01 | 0.02 | 0.31 | 91 | 1016.1 |
| 20260905102022 | 68 | 4 | 7.0 | 21.0 | 0.01 | 0.02 | 0.31 | 91 | 1016.2 |
| 20260905101522 | 68 | 20 | 7.0 | 14.0 | 0.01 | 0.02 | 0.30 | 91 | 1016.2 |
| 20260905101021 | 68 | 68 | 7.0 | 15.0 | 0.01 | 0.02 | 0.23 | 90 | 1016.5 |
| 20260905100521 | 69 | 30 | 8.0 | 16.0 | 0.01 | 0.02 | 0.20 | 88 | 1016.7 |
| 20260905095519 | 71 | 38 | 12.0 | 24.0 | 0.01 | 0.02 | 0.05 | 81 | 1016.7 |
| 20260905095019 | 72 | 323 | 14.0 | 35.0 | 0.00 | 0.02 | 0.00 | 78 | 1016.0 |
| 20260905094518 | 73 | 326 | 23.0 | 34.0 | 0.00 | 0.02 | 0.00 | 72 | 1015.5 |
| 20260905094018 | 74 | 336 | 19.0 | 24.0 | 0.00 | 0.02 | 0.00 | 75 | 1015.6 |
| 20260905093517 | 74 | 10 | 9.0 | 28.0 | 0.00 | 0.02 | 0.00 | 81 | 1015.2 |
| 20260905093017 | 74 | 301 | 10.0 | 2.0 | 0.00 | 0.02 | 0.00 | 85 | 1014.2 |
| 20260905092516 | 75 | 330 | 0.0 | 0.0 | 0.00 | 0.02 | 0.00 | 85 | 1013.6 |
| 20260905092016 | 75 | 20 | 0.0 | 0.0 | 0.00 | 0.02 | 0.00 | 85 | 1013.7 |
| 20260905091515 | 75 | 20 | 0.0 | 0.0 | 0.00 | 0.02 | 0.00 | 86 | 1013.7 |
| 20260905091013 | 74 | 20 | 0.0 | 0.0 | 0.00 | 0.02 | 0.00 | 85 | 1013.7 |
| 20260905090012 | 74 | 20 | 0.0 | 0.0 | 0.00 | 0.02 | 0.00 | 85 | 1013.6 |
| 20260905085511 | 74 | 20 | 0.0 | 0.0 | 0.00 | 0.02 | 0.00 | 85 | 1013.4 |
| 20260905085011 | 74 | 20 | 0.0 | 0.0 | 0.00 | 0.02 | 0.00 | 85 | 1013.3 |
| 20260905084510 | 74 | 20 | 0.0 | 0.0 | 0.00 | 0.02 | 0.00 | 85 | 1013.3 |
| 20260905084010 | 74 | 20 | 0.0 | 0.0 | 0.00 | 0.02 | 0.00 | 84 | 1013.4 |
| 20260905083509 | 74 | 20 | 0.0 | 0.0 | 0.00 | 0.02 | 0.00 | 84 | 1013.3 |
| 20260905083009 | 74 | 20 | 0.0 | 0.0 | 0.00 | 0.02 | 0.00 | 85 | 1013.5 |
| 20260905082508 | 74 | 20 | 0.0 | 0.0 | 0.00 | 0.02 | 0.00 | 85 | 1013.6 |
| 20260905082008 | 74 | 20 | 0.0 | 0.0 | 0.00 | 0.02 | 0.00 | 85 | 1013.7 |
| 20260905081507 | 74 | 20 | 0.0 | 0.0 | 0.00 | 0.02 | 0.00 | 85 | 1013.7 |
| 20260905081006 | 74 | 20 | 0.0 | 0.0 | 0.00 | 0.02 | 0.00 | 85 | 1013.7 |
| 20260905080506 | 74 | 20 | 0.0 | 0.0 | 0.00 | 0.02 | 0.00 | 85 | 1013.7 |
| 20260905080005 | 74 | 20 | 0.0 | 0.0 | 0.00 | 0.02 | 0.00 | 86 | 1013.8 |
| 20260905075505 | 74 | 20 | 0.0 | 0.0 | 0.00 | 0.02 | 0.00 | 86 | 1013.7 |
| 20260905075005 | 74 | 20 | 0.0 | 2.0 | 0.00 | 0.02 | 0.00 | 86 | 1013.7 |
| 20260905074504 | 74 | 28 | 2.0 | 4.0 | 0.00 | 0.02 | 0.00 | 86 | 1013.5 |
| 20260905074003 | 74 | 121 | 1.0 | 3.0 | 0.00 | 0.02 | 0.00 | 86 | 1013.4 |
| 20260905073002 | 74 | 114 | 3.0 | 3.0 | 0.00 | 0.02 | 0.00 | 86 | 1013.2 |
| 20260905072502 | 74 | 114 | 0.0 | 4.0 | 0.00 | 0.02 | 0.00 | 86 | 1013.3 |
| 20260905072001 | 74 | 58 | 2.0 | 4.0 | 0.00 | 0.02 | 0.00 | 86 | 1013.2 |
| 20260905071501 | 74 | 108 | 2.0 | 5.0 | 0.00 | 0.02 | 0.00 | 86 | 1013.1 |
| 20260905071000 | 74 | 90 | 0.0 | 0.0 | 0.00 | 0.02 | 0.00 | 86 | 1013.2 |
| 20260905070500 | 74 | 90 | 0.0 | 1.0 | 0.00 | 0.02 | 0.00 | 86 | 1013.1 |
| 20260905065459 | 74 | 86 | 2.0 | 4.0 | 0.00 | 0.02 | 0.00 | 85 | 1013.2 |
| 20260905064958 | 74 | 134 | 3.0 | 3.0 | 0.00 | 0.02 | 0.00 | 85 | 1013.2 |
| 20260905064457 | 74 | 62 | 0.0 | 3.0 | 0.00 | 0.02 | 0.00 | 85 | 1013.2 |
| 20260905063456 | 74 | 107 | 1.0 | 3.0 | 0.00 | 0.02 | 0.00 | 85 | 1013.5 |
| 20260905063009 | 74 | 115 | 1.0 | 4.0 | 0.00 | 0.02 | 0.00 | 85 | 1013.6 |
| 20260905062956 | 74 | 96 | 0.0 | 2.0 | 0.00 | 0.02 | 0.00 | 85 | 1013.5 |
| 20260905062455 | 74 | 115 | 1.0 | 4.0 | 0.00 | 0.02 | 0.00 | 85 | 1013.6 |
| 20260905061955 | 74 | 84 | 2.0 | 5.0 | 0.00 | 0.02 | 0.00 | 84 | 1013.7 |
| 20260905061454 | 74 | 122 | 2.0 | 2.0 | 0.00 | 0.02 | 0.00 | 84 | 1013.8 |
| 20260905060954 | 75 | 94 | 1.0 | 3.0 | 0.00 | 0.02 | 0.00 | 84 | 1013.8 |
| 20260905060453 | 75 | 91 | 2.0 | 3.0 | 0.00 | 0.02 | 0.00 | 84 | 1014.0 |
| 20260905055953 | 75 | 118 | 2.0 | 3.0 | 0.00 | 0.02 | 0.00 | 83 | 1014.1 |
| 20260905055452 | 75 | 124 | 2.0 | 3.0 | 0.00 | 0.02 | 0.00 | 83 | 1014.1 |
| 20260905054952 | 75 | 98 | 2.0 | 3.0 | 0.00 | 0.02 | 0.00 | 83 | 1014.2 |
| 20260905054451 | 75 | 115 | 1.0 | 4.0 | 0.00 | 0.02 | 0.00 | 83 | 1014.3 |
| 20260905053951 | 75 | 118 | 2.0 | 4.0 | 0.00 | 0.02 | 0.00 | 83 | 1014.4 |
| 20260905053450 | 75 | 115 | 3.0 | 3.0 | 0.00 | 0.02 | 0.00 | 82 | 1014.4 |
| 20260905052950 | 75 | 94 | 0.0 | 1.0 | 0.00 | 0.02 | 0.00 | 83 | 1014.4 |
| 20260905052449 | 75 | 89 | 0.0 | 3.0 | 0.00 | 0.02 | 0.00 | 83 | 1014.5 |
| 20260905051949 | 75 | 86 | 1.0 | 2.0 | 0.00 | 0.02 | 0.00 | 83 | 1014.5 |
| 20260905051448 | 75 | 6 | 0.0 | 0.0 | 0.00 | 0.02 | 0.00 | 83 | 1014.5 |
| 20260905050948 | 75 | 6 | 0.0 | 1.0 | 0.00 | 0.02 | 0.00 | 82 | 1014.6 |
| 20260905050447 | 75 | 6 | 0.0 | 1.0 | 0.00 | 0.02 | 0.00 | 82 | 1014.7 |
| 20260905045946 | 75 | 10 | 0.0 | 0.0 | 0.00 | 0.02 | 0.00 | 82 | 1014.6 |
| 20260905045445 | 75 | 10 | 0.0 | 0.0 | 0.00 | 0.02 | 0.00 | 81 | 1014.6 |
| 20260905044944 | 75 | 10 | 0.0 | 0.0 | 0.00 | 0.00 | 0.02 | 81 | 1014.7 |
| 20260905044444 | 75 | 10 | 0.0 | 0.0 | 0.00 | 0.00 | 0.02 | 81 | 1014.7 |
| 20260905043943 | 75 | 10 | 0.0 | 1.0 | 0.00 | 0.00 | 0.02 | 81 | 1014.8 |
| 20260905043443 | 75 | 10 | 1.0 | 0.0 | 0.00 | 0.00 | 0.02 | 81 | 1014.8 |
| 20260905042942 | 76 | 10 | 0.0 | 1.0 | 0.00 | 0.00 | 0.02 | 81 | 1014.8 |
| 20260905042442 | 76 | 10 | 1.0 | 2.0 | 0.00 | 0.00 | 0.02 | 81 | 1014.8 |
| 20260905041941 | 76 | 35 | 2.0 | 3.0 | 0.00 | 0.00 | 0.02 | 81 | 1014.9 |
| 20260905041441 | 76 | 72 | 0.0 | 0.0 | 0.00 | 0.00 | 0.02 | 81 | 1014.8 |
| 20260905040940 | 76 | 72 | 0.0 | 0.0 | 0.00 | 0.00 | 0.02 | 81 | 1014.8 |
| 20260905040440 | 76 | 72 | 0.0 | 0.0 | 0.00 | 0.00 | 0.02 | 81 | 1015.0 |
| 20260905035939 | 75 | 72 | 0.0 | 0.0 | 0.00 | 0.00 | 0.02 | 81 | 1015.0 |
| 20260905035439 | 75 | 72 | 0.0 | 0.0 | 0.00 | 0.00 | 0.02 | 81 | 1015.0 |
| 20260905034938 | 76 | 72 | 0.0 | 0.0 | 0.00 | 0.00 | 0.02 | 81 | 1015.0 |
| 20260905034438 | 76 | 72 | 0.0 | 0.0 | 0.00 | 0.00 | 0.02 | 81 | 1015.0 |
| 20260905034159 | 76 | 72 | 0.0 | 0.0 | 0.00 | 0.00 | 0.02 | 81 | 1014.9 |
| 20260905033937 | 76 | 72 | 0.0 | 0.0 | 0.00 | 0.00 | 0.02 | 81 | 1014.9 |
| 20260905033437 | 76 | 72 | 0.0 | 0.0 | 0.00 | 0.00 | 0.02 | 80 | 1014.9 |
| 20260905032936 | 76 | 72 | 0.0 | 0.0 | 0.00 | 0.00 | 0.02 | 80 | 1014.8 |
| 20260905032435 | 76 | 72 | 0.0 | 0.0 | 0.00 | 0.00 | 0.02 | 80 | 1014.8 |
| 20260905031434 | 76 | 72 | 0.0 | 0.0 | 0.00 | 0.00 | 0.02 | 80 | 1014.9 |
| 20260905030934 | 76 | 72 | 0.0 | 0.0 | 0.00 | 0.00 | 0.02 | 80 | 1014.9 |
| 20260905030703 | 76 | 55 | 0.0 | 0.0 | 0.00 | 0.00 | 0.02 | 79 | 1014.8 |
| 20260905030433 | 76 | 72 | 0.0 | 1.0 | 0.00 | 0.00 | 0.02 | 79 | 1014.9 |
| 20260905025933 | 76 | 59 | 0.0 | 2.0 | 0.00 | 0.00 | 0.02 | 79 | 1014.8 |
| 20260905025432 | 76 | 38 | 0.0 | 2.0 | 0.00 | 0.00 | 0.02 | 79 | 1014.9 |
| 20260905024932 | 76 | 55 | 0.0 | 0.0 | 0.00 | 0.00 | 0.02 | 79 | 1014.8 |
| 20260905024431 | 76 | 55 | 0.0 | 0.0 | 0.00 | 0.00 | 0.02 | 79 | 1014.8 |
| 20260905023931 | 76 | 55 | 0.0 | 0.0 | 0.00 | 0.00 | 0.02 | 79 | 1014.8 |
| 20260905023430 | 76 | 45 | 0.0 | 0.0 | 0.00 | 0.00 | 0.02 | 79 | 1014.8 |
| 20260905022630 | 76 | 23 | 1.0 | 1.0 | 0.00 | 0.00 | 0.02 | 80 | 1014.8 |
| 20260905022202 | 76 | 23 | 1.0 | 1.0 | 0.00 | 0.00 | 0.02 | 80 | 1014.8 |
| 20260905022012 | 76 | 23 | 1.0 | 1.0 | 0.00 | 0.00 | 0.02 | 80 | 1014.8 |
| 20260905021927 | 76 | 23 | 1.0 | 1.0 | 0.00 | 0.00 | 0.02 | 80 | 1014.8 |
| 20260905021426 | 76 | 31 | 0.0 | 0.0 | 0.00 | 0.00 | 0.02 | 80 | 1014.8 |
| 20260905020926 | 76 | 31 | 0.0 | 1.0 | 0.00 | 0.00 | 0.02 | 80 | 1014.7 |
| 20260905020424 | 76 | 31 | 0.0 | 3.0 | 0.00 | 0.00 | 0.02 | 80 | 1014.7 |
| 20260905015924 | 76 | 25 | 1.0 | 3.0 | 0.00 | 0.00 | 0.02 | 81 | 1014.7 |
| 20260905015423 | 76 | 32 | 2.0 | 3.0 | 0.00 | 0.00 | 0.02 | 80 | 1014.7 |
| 20260905014923 | 76 | 31 | 2.0 | 2.0 | 0.00 | 0.00 | 0.02 | 79 | 1014.6 |
| 20260905014422 | 77 | 190 | 0.0 | 0.0 | 0.00 | 0.00 | 0.02 | 78 | 1014.5 |
| 20260905013922 | 77 | 190 | 0.0 | 0.0 | 0.00 | 0.00 | 0.02 | 76 | 1014.4 |
| 20260905013421 | 77 | 190 | 0.0 | 0.0 | 0.00 | 0.00 | 0.02 | 76 | 1014.3 |
| 20260905012920 | 77 | 190 | 0.0 | 1.0 | 0.00 | 0.00 | 0.02 | 76 | 1014.4 |
| 20260905012420 | 77 | 190 | 0.0 | 2.0 | 0.00 | 0.00 | 0.02 | 76 | 1014.2 |
| 20260905011919 | 77 | 239 | 0.0 | 3.0 | 0.00 | 0.00 | 0.02 | 76 | 1014.3 |
| 20260905011419 | 77 | 186 | 0.0 | 0.0 | 0.00 | 0.00 | 0.02 | 75 | 1014.1 |
| 20260905010918 | 77 | 186 | 0.0 | 0.0 | 0.00 | 0.00 | 0.02 | 75 | 1014.2 |
| 20260905010418 | 77 | 186 | 0.0 | 2.0 | 0.00 | 0.00 | 0.02 | 74 | 1014.0 |
| 20260905005917 | 77 | 186 | 0.0 | 3.0 | 0.00 | 0.00 | 0.02 | 74 | 1014.0 |
| 20260905005417 | 77 | 212 | 3.0 | 2.0 | 0.00 | 0.00 | 0.02 | 74 | 1014.1 |
| 20260905004916 | 77 | 288 | 0.0 | 2.0 | 0.00 | 0.00 | 0.02 | 74 | 1014.0 |
| 20260905004416 | 77 | 259 | 2.0 | 4.0 | 0.00 | 0.00 | 0.02 | 74 | 1013.8 |
| 20260905003915 | 77 | 252 | 0.0 | 3.0 | 0.00 | 0.00 | 0.02 | 73 | 1013.8 |
| 20260905003415 | 78 | 215 | 2.0 | 3.0 | 0.00 | 0.00 | 0.02 | 73 | 1013.7 |
| 20260905002914 | 78 | 208 | 2.0 | 4.0 | 0.00 | 0.00 | 0.02 | 72 | 1013.7 |
| 20260905002414 | 78 | 249 | 3.0 | 4.0 | 0.00 | 0.00 | 0.02 | 71 | 1013.7 |
| 20260905001913 | 78 | 263 | 3.0 | 4.0 | 0.00 | 0.00 | 0.02 | 72 | 1013.7 |
| 20260905001412 | 78 | 304 | 3.0 | 4.0 | 0.00 | 0.00 | 0.02 | 71 | 1013.8 |
| 20260905000912 | 79 | 274 | 2.0 | 4.0 | 0.00 | 0.00 | 0.02 | 70 | 1013.8 |
| 20260905000410 | 79 | 311 | 2.0 | 4.0 | 0.00 | 0.00 | 0.02 | 70 | 1013.8 |
| 20260904235909 | 79 | 298 | 3.0 | 4.0 | 0.00 | 0.00 | 0.02 | 69 | 1013.7 |
| 20260904235408 | 79 | 276 | 2.0 | 4.0 | 0.00 | 0.00 | 0.02 | 69 | 1013.8 |
| 20260904234908 | 80 | 323 | 2.0 | 3.0 | 0.01 | 0.00 | 0.02 | 67 | 1013.8 |
| 20260904234407 | 80 | 333 | 1.0 | 2.0 | 0.01 | 0.00 | 0.02 | 66 | 1013.7 |
| 20260904233905 | 80 | 290 | 1.0 | 4.0 | 0.01 | 0.00 | 0.02 | 66 | 1013.8 |
| 20260904233404 | 80 | 287 | 2.0 | 3.0 | 0.01 | 0.00 | 0.02 | 65 | 1013.8 |
| 20260904232904 | 80 | 318 | 1.0 | 3.0 | 0.01 | 0.00 | 0.02 | 65 | 1013.7 |
| 20260904232401 | 80 | 287 | 2.0 | 3.0 | 0.01 | 0.00 | 0.02 | 65 | 1014.0 |
| 20260904231901 | 80 | 305 | 1.0 | 3.0 | 0.01 | 0.00 | 0.02 | 65 | 1014.0 |
| 20260904225352 | 80 | 309 | 1.0 | 2.0 | 0.01 | 0.00 | 0.02 | 66 | 1014.3 |
| 20260904224852 | 80 | 316 | 0.0 | 4.0 | 0.01 | 0.00 | 0.02 | 67 | 1014.3 |
| 20260904224351 | 80 | 210 | 3.0 | 7.0 | 0.01 | 0.00 | 0.02 | 66 | 1014.5 |
| 20260904223851 | 80 | 336 | 5.0 | 7.0 | 0.01 | 0.00 | 0.02 | 66 | 1014.5 |
| 20260904222850 | 79 | 267 | 1.0 | 3.0 | 0.01 | 0.00 | 0.02 | 68 | 1014.5 |
| 20260904222349 | 79 | 203 | 2.0 | 7.0 | 0.01 | 0.00 | 0.02 | 69 | 1014.4 |
| 20260904221849 | 79 | 238 | 4.0 | 6.0 | 0.01 | 0.00 | 0.02 | 68 | 1014.6 |
| 20260904221348 | 78 | 210 | 4.0 | 6.0 | 0.01 | 0.00 | 0.02 | 68 | 1014.5 |
| 20260904220847 | 78 | 226 | 4.0 | 8.0 | 0.01 | 0.00 | 0.02 | 69 | 1014.5 |
| 20260904220347 | 77 | 187 | 6.0 | 6.0 | 0.01 | 0.00 | 0.02 | 69 | 1014.6 |
| 20260904215846 | 77 | 211 | 3.0 | 8.0 | 0.01 | 0.00 | 0.01 | 73 | 1014.6 |
| 20260904215346 | 76 | 208 | 5.0 | 7.0 | 0.01 | 0.00 | 0.01 | 76 | 1014.8 |
| 20260904214845 | 76 | 195 | 4.0 | 4.0 | 0.00 | 0.00 | 0.01 | 80 | 1014.7 |
| 20260904214343 | 75 | 58 | 3.0 | 3.0 | 0.00 | 0.00 | 0.01 | 81 | 1014.5 |
| 20260904213341 | 75 | 250 | 3.0 | 6.0 | 0.00 | 0.00 | 0.01 | 78 | 1015.2 |
| 20260904212340 | 75 | 228 | 5.0 | 8.0 | 0.00 | 0.00 | 0.00 | 74 | 1015.8 |
| 20260904211839 | 75 | 235 | 2.0 | 8.0 | 0.00 | 0.00 | 0.00 | 70 | 1015.8 |
| 20260904211339 | 76 | 281 | 4.0 | 11.0 | 0.00 | 0.00 | 0.00 | 69 | 1016.2 |
| 20260904210838 | 77 | 274 | 7.0 | 7.0 | 0.00 | 0.00 | 0.00 | 66 | 1015.8 |
| 20260904210338 | 77 | 6 | 1.0 | 5.0 | 0.00 | 0.00 | 0.00 | 64 | 1015.3 |
| 20260904205837 | 77 | 0 | 3.0 | 6.0 | 0.00 | 0.00 | 0.00 | 65 | 1015.2 |
| 20260904205336 | 77 | 356 | 4.0 | 11.0 | 0.00 | 0.00 | 0.00 | 65 | 1015.1 |
| 20260904204836 | 76 | 291 | 8.0 | 13.0 | 0.00 | 0.00 | 0.00 | 66 | 1015.2 |
| 20260904204336 | 76 | 34 | 8.0 | 21.0 | 0.00 | 0.00 | 0.00 | 67 | 1015.4 |
| 20260904203835 | 76 | 42 | 11.0 | 25.0 | 0.00 | 0.00 | 0.00 | 65 | 1015.1 |
| 20260904203333 | 76 | 359 | 11.0 | 21.0 | 0.00 | 0.00 | 0.00 | 65 | 1015.3 |